Weather Roundup
Issued by NWS Corpus Christi, TX

Home | Current Version | Previous Version | Text Only | Print | Product List | Glossary On
Versions: 1 2 3 4 5 6 7 8 9 10 11 12 13 14 15 16 17 18 19 20 21 22 23 24 25 26 27 28 29 30 31 32 33 34 35 36 37 38 39 40 41 42 43 44 45 46 47 48 49 50
000
ASUS44 KCRP 271510
HRRCRP

SOUTH TEXAS REGIONAL WEATHER ROUNDUP
NATIONAL WEATHER SERVICE CORPUS CHRISTI TX
900 AM CST SAT DEC 27 2014


TXZ229>244-271600-
...CORPUS CHRISTI AREA OBSERVATIONS...

CITY           SKY/WX    TMP DP  RH WIND       PRES   REMARKS
CORPUS CHRISTI PTSUNNY   72  69  90 S14G23    29.98R FOG
NAS CORPUS CHR CLOUDY    71  70  96 MISG      29.98R
ROCKPORT       CLOUDY    70  68  93 SE8       29.99R FOG
KINGSVILLE NAS CLOUDY    72  70  94 S12       29.98R
ALICE          CLOUDY    71  67  87 MISG      29.99R
FALFURRIAS     CLOUDY    73  66  80 S14       29.98R
$$

...VICTORIA AREA OBSERVATIONS...

CITY           SKY/WX    TMP DP  RH WIND       PRES   REMARKS
VICTORIA       CLOUDY    71  69  93 CALM      30.02R FOG
BEEVILLE       DRIZZLE   69  69  99 S9        30.00R
PLEASANTON     LGT RAIN  64  64  98 CALM      30.01R
SAN ANTONIO    CLOUDY    65  62  90 N7        30.02S FOG
$$

...LAREDO AREA OBSERVATIONS...

CITY           SKY/WX    TMP DP  RH WIND       PRES   REMARKS
LAREDO         CLOUDY    57  55  94 W7        30.04R
DEL RIO        CLOUDY    52  35  52 NW16G23   30.13R
MCALLEN        MOSUNNY   69  66  90 S9        29.97R
HEBBRONVILLE   CLOUDY    66  63  89 SW3       30.00R
$$

...OTHER TEXAS OBSERVATIONS...

CITY           SKY/WX    TMP DP  RH WIND       PRES   REMARKS
BROWNSVILLE    MOSUNNY   72  69  90 S10       29.99R
HOUSTON        CLOUDY    70  68  93 CALM      30.03R
COL. STATION   TSTM      52  51  97 NW17G25   30.05R FOG
AUSTIN         LGT RAIN  49  46  90 N21       30.11R FOG
WACO           CLOUDY    46  35  65 N23G32    30.18R
FORT WORTH     CLOUDY    41  33  73 N22       30.21R
WICHITA FALLS  SNOW      31  30  96 N20       30.28F VSB 1/2 WCI  19
LUBBOCK        CLOUDY    28  24  85 N10       30.24S WCI  19
EL PASO        CLOUDY    36  33  89 CALM      30.18R
$$

...MARINE OBSERVATIONS...

STATION/POSITION TIME  SKY/WX   TEMP    WIND        PRES    VSBY  WAVE   SWELL
                                AIR SEA DIR/SP/G                  HT/PER HT/PER
                 (UTC)          (F)     (DEG/KT/KT) (MB)    (MI)  (FT/S) (FT/S)
PORT ARANSAS     1500            67 63  140/ 13/ 14 1015.5R
BUOY 90 E PORT A 1500            73 72  140/ 16/ 19 1016.7R         5/ 7
BUOY 45 SE BAFFI 1500            73 72  160/ 16/ 17 1015.4R         5/ 7   2/14
BUOY 200 E PT IS 1500            74 74  160/ 12/ 16 1017.7R         4/ 6   2/ 6
BUOY 15 E GALVES 1500            65 61  140/ 10/ 12 1016.8R         3/ 7   3/ 7
$$



USA.gov is the U.S. government's official web portal to all federal, state and local government web resources and services.